Regional Weather Roundup
Issued by NWS

Home | Current Version | Previous Version | Text Only | Print | Product List | Glossary Off
Versions: 1 2 3 4 5 6 7 8 9 10 11 12 13 14 15 16 17 18 19 20 21 22 23 24 25 26 27 28 29 30 31 32 33 34 35 36 37 38 39 40 41 42 43 44 45 46 47 48 49 50

000
ASUS45 KSLC 042010
RWRUT
SLCRWRUT all

UTAH REGIONAL WEATHER ROUNDUP
NATIONAL WEATHER SERVICE SALT LAKE CITY UT
200 PM MDT TUE AUG 04 2015

UTZ001>011-023>025-042100-

NORTHERN UTAH

CITY           SKY/WX    TMP DP  RH WIND       PRES   REMARKS
BRIGHAM CITY   SUNNY     80  50  34 SW7       30.10S
HILL AFB       SUNNY     81  52  36 VRB2      30.12F
LOGAN          SUNNY     79  53  40 CALM      30.10F
OGDEN          SUNNY     82  55  39 NW5       30.10F
PROVO AIRPORT  MOSUNNY   81  57  44 CALM      30.11F
SALT LAKE CITY MOSUNNY   84  48  28 CALM      30.07F
VERNAL         MOSUNNY   81  44  27 VRB3      30.16F
WENDOVER       SUNNY     81  50  34 E8        30.08F
HEBER CITY     SUNNY     79  46  31 CALM      30.17F
WEST JORDAN    SUNNY     84  46  26 SE12      30.11F

$$

UTZ012>022-026-027-042100-

SOUTHERN/CENTRAL UTAH

CITY           SKY/WX    TMP DP  RH WIND       PRES   REMARKS
BLANDING       MOSUNNY   83  47  27 SW3       30.28F
BRYCE CANYON   SUNNY     79  35  20 MISG      30.34F
CEDAR CITY     SUNNY     89  31  12 SW12G17   30.16F
DELTA          SUNNY     86  41  20 N3        30.10F
HANKSVILLE     SUNNY     88  46  23 SE7       30.11F
MILFORD        SUNNY     93  33  12 S17G24    30.09F
MOAB/CYNLANDS  SUNNY     85  53  33 N6        30.10F
PRICE          MOSUNNY   82  46  28 S8        30.20F
ST GEORGE      CLEAR     99  43  14 S5        29.97F HX  94
KANAB          SUNNY     91  34  13 S6G18     30.18F

$$

REGIONAL REPORTS     COLORADO/ARIZONA

CITY           SKY/WX    TMP DP  RH WIND       PRES   REMARKS
CRAIG, CO      NOT AVBL
GRAND JUNCTION SUNNY     87  46  24 VRB6      30.13F
RIFLE          MOSUNNY   82  43  25 CALM      30.16F
MONTROSE       MOSUNNY   83  46  27 N8        30.21F
CORTEZ         SUNNY     87  43  21 VRB3      30.21F
PAGE, AZ       SUNNY     92  40  16 CALM      30.07F
GRAND CANYON   SUNNY     85  30  13 MISG      30.29F
KINGMAN        SUNNY     99  30   9 SW23G30   30.05F HX  93
FLAGSTAFF      SUNNY     80  36  20 SW8G22    30.33F

$$

REGIONAL REPORTS    NEVADA/IDAHO/WYOMING

CITY           SKY/WX    TMP DP  RH WIND       PRES   REMARKS
LAS VEGAS, NV  NOT AVBL
ELY            SUNNY     88  22   9 SE14G21   30.16F
ELKO           SUNNY     89  36  15 MISG      30.05F
POCATELLO, ID  MOSUNNY   84  54  35 VRB5      30.07F
BURLEY         SUNNY     84  51  31 E6        30.02F
EVANSTON, WY   MOSUNNY   75  41  29 W9        30.28F
ROCK SPRINGS   SUNNY     77  45  32 W22G28    30.23S
KEMMERER       SUNNY     73  39  29 W14G20    30.30S

$$


USA.gov is the U.S. government's official web portal to all federal, state and local government web resources and services.